Location: Newark
(48.8604°N, 2.3376°E)
Time: 11:24:49
(UTC+00:00)

N. Korean satellite - Visible Passes

Search period start: 29 September 2020 00:00
Search period end: 09 October 2020 00:00
Orbit: 455 x 503 km, 97.2° (Epoch: 28 September)

Date Brightness Start Highest point End Pass type
(mag) Time Alt. Az. Time Alt. Az. Time Alt. Az.
29 Sep 8.0 05:09:04 10° NNE 05:12:34 44° E 05:15:59 10° S visible
30 Sep 9.4 04:43:29 10° NE 04:46:23 22° E 04:49:15 10° SSE visible
01 Oct 10.1 04:18:41 10° ENE 04:20:06 12° E 04:21:29 10° ESE visible
03 Oct 8.6 04:58:23 10° NNE 05:01:40 32° E 05:04:53 10° SSE visible
04 Oct 9.8 04:32:59 10° NE 04:35:25 17° E 04:37:49 10° SE visible
05 Oct 10.8 17:54:17 10° WSW 17:55:14 11° W 17:56:11 10° WNW visible
06 Oct 7.7 05:13:22 10° NNE 05:16:52 49° E 05:20:16 10° S visible
07 Oct 9.2 04:47:40 10° NE 04:50:39 24° E 04:53:35 10° SSE visible
08 Oct 10.0 04:22:38 10° ENE 04:24:21 13° E 04:26:02 10° ESE visible
